CW9927 Weather Reports


time (UTC)temp
F
wind
direction
speed
knots
gust
knots
rain 1hr
in
rain 24hr
in
rain mn
in
humidity
%
barometer
mb
20260903214117 78 225 2.6 8.7 0.00 0.00 0.00 48 1013.5
20260903213117 79 0.0 0.0 0.00 0.00 0.00 43 1013.6
20260903212119 79 0.0 0.0 0.00 0.00 0.00 41 1013.6
20260903211117 78 0.0 0.0 0.00 0.00 0.00 47 1013.6
20260903210138 78 0.0 0.9 0.00 0.00 0.00 45 1013.8
20260903205119 78 0.0 1.7 0.00 0.00 0.00 43 1013.9
20260903204118 78 0.0 0.0 0.00 0.00 0.00 47 1014.0
20260903203119 78 0.0 0.0 0.00 0.00 0.00 45 1014.1
20260903202117 77 0.0 0.0 0.00 0.00 0.00 43 1014.2
20260903201137 77 0.0 0.0 0.00 0.00 0.00 46 1014.2
20260903200119 76 0.0 0.0 0.00 0.00 0.00 48 1014.2
20260903195117 76 0.0 0.0 0.00 0.00 0.00 47 1014.4
20260903194117 76 0.0 0.0 0.00 0.00 0.00 50 1014.5
20260903193119 75 0.0 0.0 0.00 0.00 0.00 51 1014.6
20260903192137 74 0.0 0.0 0.00 0.00 0.00 52 1014.8
20260903191117 74 0.0 0.0 0.00 0.00 0.00 55 1015.0
20260903190217 73 0.0 0.0 0.00 0.00 0.00 58 1015.2
20260903185117 72 0.0 0.0 0.00 0.00 0.00 58 1015.5
20260903184117 72 0.0 0.0 0.00 0.00 0.00 59 1015.6
20260903183117 71 0.0 0.0 0.00 0.00 0.00 59 1015.7
20260903182117 71 0.0 0.0 0.00 0.00 0.00 60 1015.8
20260903181137 70 0.0 0.0 0.00 0.00 0.00 60 1015.9
20260903180117 69 0.0 0.0 0.00 0.00 0.00 64 1015.9
20260903175137 69 0.0 0.0 0.00 0.00 0.00 64 1015.9
20260903174117 69 0.0 0.0 0.00 0.00 0.00 66 1015.9
20260903173117 68 0.0 0.0 0.00 0.00 0.00 69 1016.0
20260903172137 66 0.0 0.0 0.00 0.00 0.00 73 1016.2
20260903171158 65 0.0 0.0 0.00 0.00 0.00 74 1016.3
20260903170134 63 0.0 0.0 0.00 0.00 0.00 76 1016.4
20260903165116 63 0.0 0.0 0.00 0.00 0.00 77 1016.5
20260903164136 62 0.0 0.0 0.00 0.00 0.00 78 1016.6
20260903163117 61 0.0 0.0 0.00 0.00 0.00 82 1016.6
20260903161116 59 0.0 0.0 0.00 0.00 0.00 83 1016.7
20260903160116 58 0.0 0.0 0.00 0.00 0.00 85 1016.6
20260903155116 57 0.0 0.0 0.00 0.00 0.00 88 1016.7
20260903154136 55 0.0 0.0 0.00 0.00 0.00 89 1016.8
20260903153116 54 0.0 0.0 0.00 0.00 0.00 90 1016.9
20260903152116 54 0.0 0.0 0.00 0.00 0.00 91 1016.8
20260903151116 53 0.0 0.0 0.00 0.00 0.00 92 1016.9
20260903150116 52 0.0 0.0 0.00 0.00 0.00 92 1016.8
20260903145136 52 0.0 0.0 0.00 0.00 0.00 92 1016.8
20260903144116 51 0.0 0.0 0.00 0.00 0.00 92 1016.8
20260903143116 50 0.0 0.0 0.00 0.00 0.00 92 1016.8
20260903142116 50 0.0 0.0 0.00 0.00 0.00 90 1016.7
20260903141116 50 0.0 0.0 0.00 0.00 0.00 90 1016.6
20260903140116 50 0.0 0.0 0.00 0.00 0.00 91 1016.4
20260903135116 50 0.0 0.0 0.00 0.00 0.00 90 1016.5
20260903134116 50 0.0 0.0 0.00 0.00 0.00 90 1016.4
20260903133116 51 0.0 0.0 0.00 0.00 0.00 90 1016.4
20260903132137 51 0.0 0.0 0.00 0.00 0.00 90 1016.4
20260903131156 51 0.0 0.0 0.00 0.00 0.00 91 1016.4
20260903125116 51 0.0 0.0 0.00 0.00 0.00 91 1016.4
20260903124116 51 0.0 0.0 0.00 0.00 0.00 91 1016.4
20260903123136 51 0.0 0.0 0.00 0.00 0.00 91 1016.4
20260903122116 51 0.0 0.0 0.00 0.00 0.00 90 1016.4
20260903121136 51 0.0 0.0 0.00 0.00 0.00 90 1016.5
20260903120116 51 0.0 0.0 0.00 0.00 0.00 90 1016.5
20260903115116 51 0.0 0.0 0.00 0.00 0.00 90 1016.5
20260903114136 51 0.0 0.0 0.00 0.00 0.00 90 1016.7
20260903113117 51 0.0 0.0 0.00 0.00 0.00 90 1016.7
20260903112116 51 0.0 0.0 0.00 0.00 0.00 89 1016.9
20260903111116 51 0.0 0.0 0.00 0.00 0.00 90 1017.0
20260903110116 52 0.0 0.0 0.00 0.00 0.00 89 1017.0
20260903105117 52 0.0 0.0 0.00 0.00 0.00 90 1016.9
20260903104153 53 0.0 0.0 0.00 0.00 0.00 90 1016.9
20260903103136 53 0.0 0.0 0.00 0.00 0.00 90 1017.0
20260903102116 52 0.0 0.0 0.00 0.00 0.00 89 1016.9
20260903101136 52 0.0 0.0 0.00 0.00 0.00 89 1016.9
20260903100116 53 0.0 0.0 0.00 0.00 0.00 89 1017.0
20260903095156 53 0.0 0.0 0.00 0.00 0.00 89 1017.0
20260903094136 52 0.0 0.0 0.00 0.00 0.00 89 1017.1
20260903093116 52 0.0 0.0 0.00 0.00 0.00 87 1017.2
20260903092116 52 0.0 0.0 0.00 0.00 0.00 88 1017.3
20260903091136 52 0.0 0.0 0.00 0.00 0.00 87 1017.3
20260903090116 53 0.0 0.0 0.00 0.00 0.00 87 1017.3
20260903085116 53 0.0 0.0 0.00 0.00 0.00 87 1017.3
20260903084117 54 0.0 0.0 0.00 0.00 0.00 88 1017.3
20260903083137 54 0.0 0.0 0.00 0.00 0.00 88 1017.3
20260903082119 54 0.0 0.0 0.00 0.00 0.00 88 1017.3
20260903081116 55 0.0 0.0 0.00 0.00 0.00 88 1017.4
20260903080116 55 0.0 0.0 0.00 0.00 0.00 87 1017.4
20260903075116 55 0.0 0.0 0.00 0.00 0.00 86 1017.4
20260903074116 55 0.0 0.0 0.00 0.00 0.00 86 1017.4
20260903073117 56 0.0 0.0 0.00 0.00 0.00 87 1017.3
20260903072116 56 0.0 0.0 0.00 0.00 0.00 86 1017.4
20260903071116 56 0.0 0.0 0.00 0.00 0.00 86 1017.3
20260903065137 57 0.0 0.0 0.00 0.00 0.00 86 1017.3
20260903064137 57 0.0 0.0 0.00 0.00 0.00 86 1017.3
20260903063117 57 0.0 0.0 0.00 0.00 0.00 86 1017.4
20260903062117 58 0.0 0.0 0.00 0.00 0.00 85 1017.4
20260903061117 58 0.0 0.0 0.00 0.00 0.00 85 1017.4
20260903060117 58 0.0 0.0 0.00 0.00 0.00 85 1017.5
20260903055118 58 0.0 0.0 0.00 0.00 0.00 84 1017.5
20260903054117 59 0.0 0.0 0.00 0.00 0.00 84 1017.6
20260903053117 59 0.0 0.0 0.00 0.00 0.00 83 1017.6
20260903052119 59 0.0 0.0 0.00 0.00 0.00 83 1017.6
20260903051139 59 0.0 0.0 0.00 0.00 0.00 82 1017.6
20260903050138 59 0.0 0.0 0.00 0.00 0.00 82 1017.7
20260903045117 60 0.0 0.0 0.00 0.00 0.00 81 1017.6
20260903044117 60 0.0 0.0 0.00 0.00 0.00 80 1017.4
20260903043118 60 0.0 0.0 0.00 0.00 0.00 79 1017.4
20260903042117 60 0.0 0.0 0.00 0.00 0.00 77 1017.3
20260903041138 61 0.0 0.0 0.00 0.00 0.00 77 1017.2
20260903040117 61 0.0 0.0 0.00 0.00 0.00 77 1017.2
20260903035118 62 0.0 0.0 0.00 0.00 0.00 77 1016.9
20260903034118 62 0.0 0.0 0.00 0.00 0.00 76 1016.8
20260903033117 62 0.0 0.0 0.00 0.00 0.00 76 1016.9
20260903032117 63 0.0 0.0 0.00 0.00 0.00 76 1016.7
20260903031118 63 0.0 0.0 0.00 0.00 0.00 75 1016.6
20260903030118 63 0.0 0.0 0.00 0.00 0.00 75 1016.5
20260903025119 64 0.0 0.0 0.00 0.00 0.00 74 1016.3
20260903024117 65 0.0 0.0 0.00 0.00 0.00 73 1016.4
20260903023117 66 0.0 0.0 0.00 0.00 0.00 72 1016.4
20260903022117 67 0.0 0.0 0.00 0.00 0.00 71 1016.4
20260903021117 68 0.0 0.0 0.00 0.00 0.00 70 1016.4
20260903020117 69 0.0 0.0 0.00 0.00 0.00 69 1016.3
20260903015115 69 0.0 0.0 0.00 0.00 0.00 69 1016.5
20260903014117 70 0.0 0.0 0.00 0.00 0.00 68 1016.6
20260903013117 70 0.0 0.0 0.00 0.00 0.00 67 1016.6
20260903012117 71 0.0 0.0 0.00 0.00 0.00 67 1016.5
20260903011117 71 0.0 0.0 0.00 0.00 0.00 66 1016.6
20260903010240 72 0.0 0.0 0.00 0.00 0.00 66 1016.7
20260903005117 72 0.0 0.0 0.00 0.00 0.00 65 1016.7
20260903004117 72 0.0 0.0 0.00 0.00 0.00 63 1016.6
20260903003117 73 0.0 1.7 0.00 0.00 0.00 62 1016.6
20260903002117 74 270 5.2 10.4 0.00 0.00 0.00 61 1016.4
20260903001117 74 248 2.6 7.0 0.00 0.00 0.00 60 1016.4
20260903000117 75 0.0 0.0 0.00 0.00 0.00 60 1016.4
20260902235117 75 248 6.1 10.4 0.00 0.00 0.00 57 1016.4
20260902234117 75 0.0 0.0 0.00 0.00 0.00 58 1016.4
20260902233117 76 0.0 0.0 0.00 0.00 0.00 57 1016.5
20260902232137 77 248 1.7 4.3 0.00 0.00 0.00 54 1016.5
20260902231117 77 0.0 0.0 0.00 0.00 0.00 52 1016.6
20260902230117 78 0.0 0.0 0.00 0.00 0.00 53 1016.7
20260902225137 77 0.0 0.0 0.00 0.00 0.00 53 1016.8
20260902224158 77 0.0 0.0 0.00 0.00 0.00 52 1016.9
20260902223137 78 0.0 0.0 0.00 0.00 0.00 51 1017.0
20260902222116 78 0.0 0.0 0.00 0.00 0.00 52 1017.0
20260902221138 78 0.0 0.0 0.00 0.00 0.00 53 1017.1
20260902220118 77 0.0 0.0 0.00 0.00 0.00 54 1017.1
20260902215116 78 0.0 0.0 0.00 0.00 0.00 55 1017.2